Location: Opava
(49.9500°N, 17.9170°E)
Time: 13:53:29
(UTC+02:00)

ISS - Pass Details

Date: 17 July 2025
Orbit: 416 x 425 km, 51.6° (Epoch: 19 April)

Event Time Altitude Azimuth Distance (km) Brightness Sun altitude
Rises 23:21:25 0° 288° (WNW) 2,383 0.7 -16.1°
Reaches altitude 10° 23:23:34 10° 281° (WNW) 1,521 -0.5 -16.2°
Maximum altitude 23:26:50 43° 209° (SSW) 612 -3.3 -16.4°
Enters shadow 23:27:18 40° 184° (S) 646 -3.3 -16.4°
